Location: Nairn
(57.5833°N, 3.8667°W)
Time: 17:04:26
(UTC+00:00)

S-56A Canister/Altair - Pass Details

Date: 01 December 2020
Orbit: 633 x 2499 km, 38.9° (Epoch: 19 January)

Event Time Altitude Azimuth Distance (km) Brightness Sun altitude
Rises 18:10:12 0° 206° (SSW) 5,826 12.6 -19.1°
Reaches altitude 10° 18:16:14 10° 189° (S) 4,504 11.7 -19.9°
Maximum altitude 18:22:31 16° 157° (SSE) 3,602 10.8 -20.7°
Enters shadow 18:26:36 12° 131° (SE) 3,573 10.5 -21.3°
Drops below altitude 10° 18:27:47 10° 124° (ESE) 3,668 - -21.4°
Sets 18:31:52 0° 104° (ESE) 4,296 - -22.0°
